Flag for Switzerland Weather past 2 weeks in Zug, Zug, Switzerland

Now
87 °F

Pleasantly warm.


Feels Like: 86 °F
Forecast: 62 / 89 °F
Wind: 7 mph from Northeast

Location: Zurich Town / Ville.

Current Time: Aug 29, 2015 at 5:15:33 PM

Latest Report: Aug 29, 2015 at 4:00 PM


Visibility: N/A

Pressure: 30.03 "Hg

Humidity: 37%

Dew point: 58 °F

Location of ZugLocation

Historic Weather in Zug — Graph

°F

Zug temperature yesterday

Maximum temperature yesterday: 86 °F (at 4:00 PM)
Minimum temperature yesterday: 66 °F (at 7:00 AM)
Average temperature yesterday: 76 °F

Past Weeks' High & Low Weather Summary

 TemperatureHumidityPressure
High88 °F (Aug 29, 3:00 PM)98% (Aug 16, 4:00 AM)30.26 "Hg (Aug 16, 4:00 AM)
Low52 °F (Aug 20, 7:00 AM)34% (Aug 28, 5:00 PM)29.70 "Hg (Aug 24, 2:00 PM)
Average63 °F75%30.00 "Hg
* Reported Aug 14 3:00 PM — Aug 29 3:00 PM, Zug, Weather by CustomWeather, © 2015

Note: Actual official high and low records may vary slightly from our data, if they occured in-between our weather recording intervals... More about our weather records

Advertising

Zug weather history for previous 24 hours

 ConditionsComfort  
Time TempWeatherWind HumidityBarometerVisibility
3:00 PM
Sat, Aug 29
88 °FWarm.6 mph43%30.05 "HgN/A
1:00 PM81 °FWarm.3 mph54%30.11 "HgN/A
12:00 PM79 °FWarm.2 mph56%30.14 "HgN/A
10:00 AM71 °FMild.3 mph67%30.16 "HgN/A
9:00 AM68 °FMild.3 mph76%30.17 "HgN/A
7:00 AM64 °FMild.2 mph85%30.16 "HgN/A
4:00 AM65 °FMild.1 mph82%30.16 "HgN/A
3:00 AM67 °FMild.1 mph78%30.14 "HgN/A
2:00 AM68 °FMild.2 mph74%30.15 "HgN/A
1:00 AM68 °FMild.2 mph73%30.15 "HgN/A
10:00 PM
Fri, Aug 28
72 °FMild.2 mph66%30.10 "HgN/A
9:00 PM74 °FMild.2 mph62%30.08 "HgN/A
8:00 PM77 °FWarm.3 mph55%30.05 "HgN/A
7:00 PM82 °FWarm.3 mph45%30.02 "HgN/A
6:00 PM84 °FPleasantly warm.5 mph36%30.01 "HgN/A
5:00 PM86 °FPleasantly warm.7 mph34%30.00 "HgN/A
Weather by CustomWeather, © 2015

See weather overviewHow to use our weather pages